Погода в Нюхче

Россия / Республика Карелия     63°55′23″N   36°15′14″E
темп.,
°C
ветер,
м/с
пор.,
м/с
влажн.,
%
обл.,
%
осадки,
мм/ч
давл.,
гПа
погр.,
м
29 июля, чт
чт2900:00+14вюв6127924 0.3 1005186
03:00+12всв47905 0.3 100494
06:00+13в478734 0.0 1003170
09:00+14в5781100 0.2 1002341
12:00+15всв4687100 1.8 1001344
15:00+15ссв3493100 5.9 1000207
18:00+15з2394100 2.1 998183
21:00+14всв2298100 3.4 99828
30 июля, пт
пт3000:00+12в4695100 0.1 998121
03:00+11в229850 0.1 99837
06:00+12в239850 0.0 99878
09:00+15вюв3592100 0.0 998356
12:00+16в4582100 0.1 998449
15:00+18юв3578100 0.6 996528
18:00+17юз2286100 3.6 99522
21:00+15ю5888100 4.4 994127
31 июля, сб
сб3100:00+13ююз499412 0.1 994177
03:00+13ююз4109195 0.1 994262
06:00+13ююз41091100 0.0 994329
09:00+14ююз2589100 0.3 993208
12:00+16ю1285100 2.8 993311
15:00+17ююз1484100 4.7 994558
18:00+19зюз366959 0.6 994565
21:00+15з358973 0.8 99571
1 августа, вс
вс100:00+13з349727 0.1 99775
03:00+12з229922 0.1 99832
06:00+13юз139623 0.0 99997
09:00+16юз2479100 0.0 999397
12:00+20ю145772 0.0 9991094
15:00+19всв2458100 0.1 9981030
18:00+13всв2391100 0.4 99872
21:00+13св2498100 1.1 99779
2 августа, пн
пн200:00+13вюв35100100 4.6 996136
03:00+14ююз389891 5.3 995272
06:00+14ююз3895100 0.1 996390
09:00+15юз4893100 0.3 997444
12:00+16зюз4882100 0.1 999549
15:00+19зюз466482 0.1 999944
18:00+18юз4670100 0.3 1001735
21:00+15юз3581100 0.3 1001101